SP9KB-13 Weather Reports


time (UTC)temp
C
wind
direction
speed
KPH
gust
KPH
rain 1hr
cm
rain 24hr
cm
rain mn
cm
humidity
%
barometer
mb
20260507052608 13 207 1.6 1.6 0.00 0.05 0.00 83 991.9
20260507052108 13 241 1.6 3.2 0.00 0.05 0.00 83 991.8
20260507051607 13 239 1.6 3.2 0.00 0.05 0.00 84 991.9
20260507051107 13 232 1.6 4.8 0.00 0.05 0.00 84 991.8
20260507050606 13 223 6.4 8.0 0.00 0.05 0.00 86 991.7
20260507050105 13 234 6.4 8.0 0.00 0.05 0.00 86 991.8
20260507045605 13 245 4.8 6.4 0.00 0.05 0.00 86 991.6
20260507045105 13 213 1.6 3.2 0.00 0.05 0.00 87 991.7
20260507044604 13 187 6.4 6.4 0.00 0.05 0.00 86 992.0
20260507044103 13 201 1.6 1.6 0.00 0.05 0.00 87 991.9
20260507043603 13 219 3.2 3.2 0.00 0.05 0.00 87 991.9
20260507043102 13 207 3.2 4.8 0.00 0.05 0.00 87 991.7
20260507042602 13 203 3.2 6.4 0.00 0.05 0.00 87 991.9
20260507042101 13 223 3.2 3.2 0.13 0.05 0.00 87 991.7
20260507041601 13 228 4.8 4.8 0.13 0.05 0.00 84 991.6
20260507041100 13 182 3.2 4.8 0.30 0.05 0.00 84 991.8
20260507040600 13 233 3.2 4.8 0.18 0.03 0.00 83 991.9
20260507040059 13 226 0.0 1.6 0.00 0.00 0.00 80 991.8
20260507035558 14 236 6.4 6.4 0.00 0.00 0.00 76 991.6
20260507035058 14 131 4.8 8.0 0.00 0.00 0.00 74 991.4
20260507034558 14 231 4.8 6.4 0.00 0.00 0.00 73 991.3
20260507034057 14 224 1.6 3.2 0.00 0.00 0.00 73 991.4
20260507033556 15 237 1.6 3.2 0.00 0.00 0.00 72 991.3
20260507033056 15 221 3.2 4.8 0.00 0.00 0.00 72 991.4
20260507032555 15 230 4.8 4.8 0.00 0.00 0.00 72 991.2
20260507032055 15 201 0.0 0.0 0.00 0.00 0.00 72 991.4
20260507031554 15 212 1.6 3.2 0.00 0.00 0.00 71 991.3
20260507031053 15 234 6.4 8.0 0.00 0.00 0.00 71 991.2
20260507030553 15 201 3.2 4.8 0.00 0.00 0.00 71 991.2
20260507030053 15 235 4.8 4.8 0.00 0.00 0.00 71 991.3
20260507025552 15 216 4.8 6.4 0.00 0.00 0.00 71 991.4
20260507025051 15 227 4.8 4.8 0.00 0.00 0.00 70 991.4
20260507024551 15 251 4.8 6.4 0.00 0.00 0.00 70 991.5
20260507024051 15 240 3.2 4.8 0.00 0.00 0.00 70 991.2
20260507023550 15 241 6.4 8.0 0.00 0.00 0.00 70 991.3
20260507023049 15 226 4.8 4.8 0.00 0.00 0.00 70 991.3
20260507022549 15 224 4.8 6.4 0.00 0.00 0.00 70 991.2
20260507022048 15 226 1.6 1.6 0.00 0.00 0.00 70 991.1
20260507021548 15 224 0.0 1.6 0.00 0.00 0.00 70 991.2
20260507021047 15 172 0.0 1.6 0.00 0.00 0.00 70 991.1
20260507020547 15 210 0.0 0.0 0.00 0.00 0.00 71 991.2
20260507020046 15 203 1.6 1.6 0.00 0.00 0.00 71 991.3
20260507015546 15 231 1.6 1.6 0.00 0.00 0.00 70 991.1
20260507015045 15 239 3.2 6.4 0.00 0.00 0.00 69 991.1
20260507014545 15 236 9.7 11.3 0.00 0.00 0.00 69 991.0
20260507014044 15 229 3.2 4.8 0.00 0.00 0.00 68 990.9
20260507013544 15 203 4.8 4.8 0.00 0.00 0.00 68 990.9
20260507013043 15 222 3.2 4.8 0.00 0.00 0.00 69 991.1
20260507012543 14 225 4.8 8.0 0.00 0.00 0.00 71 991.0
20260507012042 13 229 0.0 0.0 0.00 0.00 0.00 75 990.9
20260507011542 14 229 0.0 0.0 0.00 0.00 0.00 73 991.0
20260507011042 15 229 0.0 0.0 0.00 0.00 0.00 71 990.9
20260507010541 15 229 0.0 0.0 0.00 0.00 0.00 69 991.0
20260507010040 15 231 1.6 3.2 0.00 0.00 0.00 68 990.9
20260507005540 15 240 3.2 4.8 0.00 0.00 0.00 68 991.0
20260507005039 15 226 0.0 0.0 0.00 0.00 0.00 69 990.8
20260507004038 15 234 1.6 3.2 0.00 0.00 0.00 67 990.9
20260507003537 15 196 0.0 0.0 0.00 0.00 0.00 68 991.0
20260507003037 16 267 3.2 3.2 0.00 0.00 0.00 66 991.0
20260507002536 16 231 3.2 3.2 0.00 0.00 0.00 65 991.0
20260507002036 16 179 1.6 3.2 0.00 0.00 0.00 64 990.9
20260507001535 16 224 3.2 4.8 0.00 0.00 0.00 63 991.1
20260507001035 16 228 6.4 8.0 0.00 0.00 0.00 62 990.9
20260507000534 16 214 6.4 9.7 0.00 0.00 0.00 63 990.7
20260507000033 16 233 4.8 6.4 0.00 0.00 0.00 63 990.9
20260506235533 16 228 6.4 6.4 0.00 0.00 0.00 62 990.7
20260506235032 16 227 3.2 4.8 0.00 0.00 0.00 63 990.9
20260506234532 16 241 6.4 8.0 0.00 0.00 0.00 63 990.8
20260506234031 16 236 6.4 8.0 0.00 0.00 0.00 62 990.8
20260506233531 16 237 6.4 11.3 0.00 0.00 0.00 63 990.8
20260506233030 16 233 8.0 9.7 0.00 0.00 0.00 64 990.8
20260506232530 15 226 4.8 8.0 0.00 0.00 0.00 68 990.6
20260506232029 12 191 0.0 0.0 0.00 0.00 0.00 79 990.7
20260506231529 11 276 3.2 3.2 0.00 0.00 0.00 81 990.5
20260506231028 11 164 0.0 0.0 0.00 0.00 0.00 81 990.8
20260506230528 11 168 0.0 0.0 0.00 0.00 0.00 80 990.6
20260506230027 12 168 0.0 0.0 0.00 0.00 0.00 79 990.8
20260506225527 12 239 1.6 3.2 0.00 0.00 0.00 79 990.6
20260506225026 13 145 0.0 0.0 0.00 0.00 0.00 76 990.8
20260506224526 13 144 0.0 0.0 0.00 0.00 0.00 75 990.7
20260506224025 13 145 0.0 0.0 0.00 0.00 0.00 76 990.9
20260506223524 13 144 0.0 0.0 0.00 0.00 0.00 73 990.9
20260506223024 13 222 1.6 1.6 0.00 0.00 0.00 74 991.0
20260506222523 12 115 1.6 1.6 0.00 0.00 0.00 74 990.9
20260506222023 12 212 0.0 1.6 0.00 0.00 0.00 76 990.9
20260506221522 13 174 0.0 0.0 0.00 0.00 0.00 74 991.1
20260506221022 13 174 0.0 0.0 0.00 0.00 0.00 74 991.0
20260506220521 13 174 0.0 0.0 0.00 0.00 0.00 73 991.0
20260506220021 14 173 0.0 0.0 0.00 0.00 0.00 70 991.0
20260506215519 14 220 0.0 1.6 0.00 0.00 0.00 68 990.9
20260506215018 15 222 3.2 4.8 0.00 0.00 0.00 64 990.9
20260506214518 15 221 0.0 0.0 0.00 0.00 0.00 64 991.1
20260506214017 16 221 0.0 0.0 0.00 0.00 0.00 62 990.9
20260506213517 16 219 1.6 1.6 0.00 0.00 0.00 60 990.9
20260506213016 16 236 3.2 3.2 0.00 0.00 0.00 58 991.0
20260506212515 16 211 1.6 3.2 0.00 0.00 0.00 58 991.1
20260506212015 16 233 4.8 6.4 0.00 0.00 0.00 59 991.0
20260506211514 16 250 3.2 6.4 0.00 0.00 0.00 59 991.0
20260506211014 16 222 3.2 4.8 0.00 0.00 0.00 59 991.1
20260506210513 16 219 0.0 0.0 0.00 0.00 0.00 59 991.0
20260506210013 16 226 4.8 6.4 0.00 0.00 0.00 58 991.1
20260506205512 16 219 3.2 4.8 0.00 0.00 0.00 58 991.1
20260506205011 16 232 3.2 3.2 0.00 0.00 0.00 59 990.8
20260506204511 16 201 6.4 8.0 0.00 0.00 0.00 59 990.8
20260506204010 16 227 3.2 3.2 0.00 0.00 0.00 60 990.9
20260506203510 15 224 3.2 3.2 0.00 0.00 0.00 64 990.9
20260506203009 13 230 1.6 3.2 0.00 0.00 0.00 69 991.0
20260506202509 13 229 0.0 0.0 0.00 0.00 0.00 71 990.8
20260506202008 14 229 0.0 0.0 0.00 0.00 0.00 69 990.9
20260506201507 15 229 0.0 0.0 0.00 0.00 0.00 68 990.8
20260506201007 15 226 1.6 1.6 0.00 0.00 0.00 65 990.7
20260506200506 14 215 0.0 0.0 0.00 0.00 0.00 68 990.8
20260506200006 15 215 0.0 0.0 0.00 0.00 0.00 67 990.9
20260506195505 15 221 1.6 1.6 0.00 0.00 0.00 66 990.6
20260506195004 15 248 3.2 4.8 0.00 0.00 0.00 65 990.7
20260506194503 15 215 0.0 0.0 0.00 0.00 0.00 66 990.7
20260506194003 15 211 0.0 0.0 0.00 0.00 0.00 65 990.9
20260506193502 16 177 0.0 0.0 0.00 0.00 0.00 63 990.7
20260506193001 16 222 0.0 1.6 0.00 0.00 0.00 61 990.8
20260506192501 16 217 1.6 1.6 0.00 0.00 0.00 60 990.8
20260506192000 16 228 1.6 3.2 0.00 0.00 0.00 60 990.6
20260506191459 17 197 6.4 8.0 0.00 0.00 0.00 59 990.5
20260506190959 17 224 1.6 3.2 0.00 0.00 0.00 59 990.6
20260506190458 17 221 3.2 3.2 0.00 0.00 0.00 58 990.6
20260506185957 17 232 1.6 3.2 0.00 0.00 0.00 58 990.6
20260506185457 17 212 0.0 0.0 0.00 0.00 0.00 57 990.8
20260506184956 18 222 1.6 3.2 0.00 0.00 0.00 55 990.6
20260506184456 18 237 4.8 6.4 0.00 0.00 0.00 54 990.8
20260506183955 18 183 3.2 4.8 0.00 0.00 0.00 54 990.6
20260506183455 18 229 4.8 6.4 0.00 0.00 0.00 54 990.6
20260506182954 18 223 1.6 3.2 0.00 0.00 0.00 54 990.5
20260506182454 18 221 3.2 3.2 0.00 0.00 0.00 54 990.6
20260506181953 18 233 3.2 4.8 0.00 0.00 0.00 54 990.4
20260506181453 18 226 0.0 0.0 0.00 0.00 0.00 54 990.3
20260506180952 18 228 6.4 8.0 0.00 0.00 0.00 53 990.3
20260506180451 18 211 1.6 1.6 0.00 0.00 0.00 53 990.2
20260506175951 18 175 4.8 6.4 0.00 0.00 0.00 52 990.3
20260506175450 18 195 4.8 6.4 0.00 0.00 0.00 52 990.3
20260506174950 19 229 3.2 4.8 0.00 0.00 0.00 53 990.3
20260506174449 19 207 1.6 3.2 0.00 0.00 0.00 52 990.3
20260506173948 19 143 0.0 1.6 0.00 0.00 0.00 53 990.3
20260506173448 19 217 0.0 0.0 0.00 0.00 0.00 52 990.1
20260506172947 20 223 4.8 6.4 0.00 0.00 0.00 51 990.1
20260506172447 20 214 4.8 6.4 0.00 0.00 0.00 51 990.2
20260506171946 20 227 6.4 6.4 0.00 0.00 0.00 50 990.2
20260506171446 20 160 1.6 1.6 0.00 0.00 0.00 50 990.3
20260506170945 20 101 4.8 6.4 0.00 0.00 0.00 50 990.2
20260506170445 20 223 1.6 1.6 0.00 0.00 0.00 49 990.3
20260506165944 20 226 1.6 3.2 0.00 0.00 0.00 50 990.2
20260506165443 20 143 1.6 1.6 0.00 0.00 0.00 49 990.0
20260506164943 20 209 1.6 1.6 0.00 0.00 0.00 49 990.0
20260506164442 21 61 3.2 4.8 0.00 0.00 0.00 47 990.0
20260506163942 21 215 4.8 6.4 0.00 0.00 0.00 47 990.0
20260506163441 21 205 3.2 4.8 0.00 0.00 0.00 47 990.1
20260506162941 21 241 3.2 4.8 0.00 0.00 0.00 47 990.0
20260506162440 21 224 9.7 11.3 0.00 0.00 0.00 46 990.0
20260506161939 21 187 0.0 1.6 0.00 0.00 0.00 48 990.0
20260506161439 21 229 6.4 8.0 0.00 0.00 0.00 45 990.0
20260506160938 22 215 3.2 3.2 0.00 0.00 0.00 44 989.8
20260506160438 22 194 0.0 1.6 0.00 0.00 0.00 43 989.9
20260506155937 23 223 6.4 8.0 0.00 0.00 0.00 42 989.9
20260506155437 23 219 4.8 6.4 0.00 0.00 0.00 42 990.0
20260506154936 23 142 3.2 4.8 0.00 0.00 0.00 42 990.0
20260506154435 23 221 4.8 8.0 0.00 0.00 0.00 42 989.7
20260506153935 23 215 6.4 9.7 0.00 0.00 0.00 42 989.9
20260506153434 23 235 9.7 14.5 0.00 0.00 0.00 42 989.9
20260506152934 23 247 1.6 3.2 0.00 0.00 0.00 42 989.8
20260506152433 23 231 6.4 9.7 0.00 0.00 0.00 42 989.9
20260506151933 23 209 4.8 9.7 0.00 0.00 0.00 42 990.2
20260506151432 23 205 8.0 14.5 0.00 0.00 0.00 42 990.0
20260506150932 23 231 12.9 17.7 0.00 0.00 0.00 41 990.2
20260506150431 23 211 8.0 14.5 0.00 0.00 0.00 42 990.2
20260506145931 23 224 8.0 16.1 0.00 0.00 0.00 41 990.3
20260506145430 24 220 4.8 6.4 0.00 0.00 0.00 41 990.1
20260506144930 23 182 6.4 9.7 0.00 0.00 0.00 40 990.2
20260506144429 23 207 9.7 14.5 0.00 0.00 0.00 39 990.2
20260506143928 23 200 14.5 19.3 0.00 0.00 0.00 40 990.5
20260506143428 23 242 11.3 14.5 0.00 0.00 0.00 43 990.4
20260506142927 23 295 8.0 11.3 0.00 0.00 0.00 41 990.3
20260506142426 24 229 9.7 11.3 0.00 0.00 0.00 39 990.5
20260506141926 24 130 4.8 8.0 0.00 0.00 0.00 40 990.2
20260506141425 23 213 9.7 11.3 0.00 0.00 0.00 41 990.5
20260506140925 23 250 11.3 16.1 0.00 0.00 0.00 41 990.5
20260506140424 23 277 11.3 17.7 0.00 0.00 0.00 41 990.6
20260506135923 23 278 16.1 20.9 0.00 0.00 0.00 40 990.6
20260506135423 23 231 4.8 8.0 0.00 0.00 0.00 40 990.7
20260506134922 23 183 8.0 9.7 0.00 0.00 0.00 40 990.7
20260506134422 24 248 6.4 6.4 0.00 0.00 0.00 40 990.8
20260506133921 23 224 9.7 11.3 0.00 0.00 0.00 39 990.7
20260506133421 23 185 12.9 17.7 0.00 0.00 0.00 38 990.5
20260506132920 23 221 12.9 17.7 0.00 0.00 0.00 38 990.6
20260506132419 23 229 14.5 19.3 0.00 0.00 0.00 38 990.6
20260506131919 23 210 3.2 4.8 0.00 0.00 0.00 40 990.9
20260506131418 23 210 8.0 9.7 0.00 0.00 0.00 39 990.9
20260506130918 23 185 12.9 19.3 0.00 0.00 0.00 39 990.7
20260506130417 24 229 11.3 17.7 0.00 0.00 0.00 38 990.7
20260506125917 23 227 12.9 16.1 0.00 0.00 0.00 38 990.6
20260506125416 24 210 11.3 16.1 0.00 0.00 0.00 38 990.6
20260506124915 23 209 11.3 17.7 0.00 0.00 0.00 37 990.7
20260506124415 23 235 8.0 9.7 0.00 0.00 0.00 38 990.6
20260506123914 23 239 16.1 19.3 0.00 0.00 0.00 38 990.8
20260506123414 24 99 6.4 12.9 0.00 0.00 0.00 38 990.7
20260506122913 23 228 4.8 8.0 0.00 0.00 0.00 38 990.8
20260506122413 23 312 4.8 8.0 0.00 0.00 0.00 37 991.1
20260506121912 24 232 4.8 6.4 0.00 0.00 0.00 36 990.8
20260506121412 24 209 8.0 11.3 0.00 0.00 0.00 37 990.9
20260506120911 25 269 11.3 14.5 0.00 0.00 0.00 36 991.1
20260506120411 23 221 4.8 8.0 0.00 0.00 0.00 38 991.0
20260506115910 23 226 9.7 12.9 0.00 0.00 0.00 37 990.9
20260506115409 25 186 3.2 3.2 0.00 0.00 0.00 36 991.1
20260506114909 23 315 3.2 6.4 0.00 0.00 0.00 37 991.0
20260506114409 24 206 4.8 8.0 0.00 0.00 0.00 37 990.9
20260506113907 24 226 3.2 4.8 0.00 0.00 0.00 37 991.2
20260506113407 23 216 11.3 17.7 0.00 0.00 0.00 37 991.0
20260506112907 23 230 14.5 20.9 0.00 0.00 0.00 36 991.2
20260506112406 23 188 1.6 3.2 0.00 0.00 0.00 38 991.1
20260506111905 23 218 8.0 12.9 0.00 0.00 0.00 38 990.9
20260506111405 23 225 4.8 6.4 0.00 0.00 0.00 38 991.0
20260506110904 23 226 11.3 16.1 0.00 0.00 0.00 38 990.9
20260506110403 24 236 9.7 17.7 0.00 0.00 0.00 38 990.8
20260506105903 23 165 3.2 4.8 0.00 0.00 0.00 39 990.9
20260506105402 23 199 6.4 12.9 0.00 0.00 0.00 38 991.2
20260506104902 23 235 12.9 17.7 0.00 0.00 0.00 39 991.1
20260506104401 23 241 8.0 9.7 0.00 0.00 0.00 41 990.9
20260506103901 23 234 6.4 8.0 0.00 0.00 0.00 43 990.9
20260506103400 23 280 8.0 11.3 0.00 0.00 0.00 43 991.1
20260506102859 23 247 14.5 16.1 0.00 0.00 0.00 43 990.9
20260506102359 23 233 8.0 19.3 0.00 0.00 0.00 43 990.9
20260506101858 22 238 17.7 19.3 0.00 0.00 0.00 43 991.1
20260506101358 22 66 0.0 1.6 0.00 0.00 0.00 46 990.9
20260506100857 22 266 8.0 12.9 0.00 0.00 0.00 48 991.2
20260506100357 22 224 1.6 3.2 0.00 0.00 0.00 48 991.3
20260506095856 21 225 9.7 11.3 0.00 0.00 0.00 48 991.3
20260506095356 21 316 4.8 8.0 0.00 0.00 0.00 48 991.2
20260506094855 21 229 6.4 9.7 0.00 0.00 0.00 49 991.3
20260506094355 21 266 4.8 6.4 0.00 0.00 0.00 50 991.2
20260506093854 21 182 3.2 6.4 0.00 0.00 0.00 51 991.1
20260506093353 20 218 6.4 14.5 0.00 0.00 0.00 52 991.3
20260506092853 20 157 4.8 9.7 0.00 0.00 0.00 51 991.3
20260506092352 20 238 6.4 8.0 0.00 0.00 0.00 52 991.3
20260506091852 20 247 12.9 17.7 0.00 0.00 0.00 51 991.5
20260506091351 20 253 4.8 8.0 0.00 0.00 0.00 51 991.6
20260506090851 20 176 6.4 9.7 0.00 0.00 0.00 52 991.5
20260506090350 20 237 4.8 9.7 0.00 0.00 0.00 52 991.4
20260506085849 20 212 4.8 6.4 0.00 0.00 0.00 51 991.2
20260506085349 20 259 4.8 4.8 0.00 0.00 0.00 50 991.1
20260506084849 20 194 8.0 14.5 0.00 0.00 0.00 51 991.3
20260506084348 20 122 4.8 6.4 0.00 0.00 0.00 51 991.1
20260506083847 20 202 3.2 4.8 0.00 0.00 0.00 50 991.1
20260506083347 20 245 9.7 14.5 0.00 0.00 0.00 50 990.9
20260506082846 20 226 3.2 4.8 0.00 0.00 0.00 50 990.9
20260506082346 18 257 3.2 4.8 0.00 0.00 0.00 52 990.9
20260506081845 20 246 4.8 12.9 0.00 0.00 0.00 49 990.8
20260506081344 20 147 0.0 1.6 0.00 0.00 0.00 49 990.8
20260506080844 20 217 4.8 8.0 0.00 0.00 0.00 49 991.1
20260506080343 20 137 3.2 3.2 0.00 0.00 0.00 48 990.9
20260506073340 20 229 6.4 9.7 0.00 0.00 0.00 48 991.0
20260506072839 19 223 1.6 1.6 0.00 0.00 0.00 48 990.9
20260506072339 19 178 6.4 11.3 0.00 0.00 0.00 46 990.9
20260506071838 19 223 3.2 4.8 0.00 0.00 0.00 48 991.2
20260506071338 19 153 1.6 3.2 0.00 0.00 0.00 48 991.0
20260506070837 18 217 3.2 4.8 0.00 0.00 0.00 49 991.1
20260506070336 17 211 1.6 3.2 0.00 0.00 0.00 51 991.2
20260506062332 16 224 4.8 6.4 0.00 0.00 0.00 55 990.8
20260506061831 16 222 8.0 8.0 0.00 0.00 0.00 54 990.9
20260506061331 16 194 3.2 3.2 0.00 0.00 0.00 54 990.8
20260506060830 16 231 4.8 6.4 0.00 0.00 0.00 54 990.8
20260506060330 16 196 8.0 12.9 0.00 0.00 0.00 53 990.9